Philadelphia, PA

10:06 AM EST on November 14, 2019 (GMT -0500)
Philadelphia International

Weather History for KPHL - September, 2019

Change the Weather History Date:

Thursday, September 19, 2019

  Actual Average Record
Temperature  
Mean Temperature 63 °F 68 °F  
Max Temperature 72 °F 77 °F 92 °F (1983)
Min Temperature 53 °F 59 °F 43 °F (1959)
Degree Days  
Heating Degree Days 2 1  
Month to date heating degree days 2 8  
Since 1 July heating degree days 2 9  
Cooling Degree Days 0 4  
Month to date cooling degree days 153 129  
Year to date cooling degree days 1487 1246  
Growing Degree Days 12 (Base 50)    
Moisture  
Dew Point 44 °F    
Average Humidity 56    
Maximum Humidity 77    
Minimum Humidity 35    
Precipitation  
Precipitation 0.00 in 0.13 in 1.95 in (1938)
Month to date precipitation 0.75 2.33  
Year to date precipitation 36.78 30.35  
Snow  
Snow 0.00 in 0.00 in 0.00 in ()
Month to date snowfall 0.0 0.0  
Since 1 July snowfall 0.0 0.0  
Since 1 September snowfall 0.0 0.0  
Snow Depth 0.00 in    
Sea Level Pressure  
Sea Level Pressure 30.32 in    
Wind  
Wind Speed 6 mph (East)    
Max Wind Speed 14 mph    
Max Gust Speed 21 mph    
Visibility 10 miles    
Events      
T = Trace of Precipitation, MM = Missing Value Source: NWS Daily Summary

Daily Weather History Graph

Daily Weather History Graph

Search for Another Location

Airport or City:

Astronomy

Sep. 19, 2019 Rise Set
Actual Time 6:45 AM EDT 7:03 PM EDT
Civil Twilight 6:18 AM EDT 7:30 PM EDT
Nautical Twilight 5:46 AM EDT 8:02 PM EDT
Astronomical Twilight 5:14 AM EDT 8:34 PM EDT
Moon 10:11 PM EDT (9/19) 11:46 AM EDT (9/19)
Length of Visible Light 13h 11m
Length of Day
12h 17m
Waning Gibbous, 74% of the Moon is Illuminated
Sep 19
Waning Gibbous
Sep 21
Last Quarter
Sep 28
New
Oct 5
First Quarter
Oct 13
Full

Hourly Weather History & Observations

Time (EDT) Temp. Dew Point Humidity Pressure Visibility Wind Dir Wind Speed Gust Speed Precip Events Conditions
12:54 AM 57.9 °F 46.9 °F 67% 30.30 in 10.0 mi NE 5.8 mph - N/A   Partly Cloudy
1:54 AM 55.9 °F 46.0 °F 69% 30.31 in 10.0 mi NE 5.8 mph - N/A   Clear
2:54 AM 57.0 °F 45.0 °F 64% 30.30 in 10.0 mi NE 8.1 mph - N/A   Clear
3:54 AM 55.9 °F 45.0 °F 67% 30.32 in 10.0 mi ENE 6.9 mph - N/A   Clear
4:54 AM 55.0 °F 44.1 °F 67% 30.32 in 10.0 mi NE 9.2 mph - N/A   Clear
5:54 AM 53.1 °F 39.9 °F 61% 30.32 in 10.0 mi NE 6.9 mph - N/A   Clear
6:54 AM 53.1 °F 41.0 °F 64% 30.34 in 10.0 mi NE 8.1 mph - N/A   Clear
7:54 AM 57.0 °F 42.1 °F 57% 30.35 in 10.0 mi NE 9.2 mph - N/A   Partly Cloudy
8:54 AM 59.0 °F 42.1 °F 53% 30.37 in 10.0 mi NE 8.1 mph 19.6 mph N/A   Partly Cloudy
9:54 AM 62.1 °F 43.0 °F 50% 30.38 in 10.0 mi ENE 5.8 mph - N/A   Partly Cloudy
10:54 AM 64.0 °F 44.1 °F 48% 30.37 in 10.0 mi East 5.8 mph - N/A   Scattered Clouds
11:54 AM 66.0 °F 43.0 °F 43% 30.36 in 10.0 mi ESE 5.8 mph - N/A   Partly Cloudy
12:54 PM 68.0 °F 43.0 °F 40% 30.35 in 10.0 mi Variable 4.6 mph - N/A   Partly Cloudy
1:54 PM 68.0 °F 42.1 °F 39% 30.33 in 10.0 mi Calm Calm - N/A   Partly Cloudy
2:54 PM 70.0 °F 41.0 °F 35% 30.32 in 10.0 mi NNE 5.8 mph - N/A   Partly Cloudy
3:54 PM 71.1 °F 42.1 °F 35% 30.31 in 10.0 mi SSE 5.8 mph - N/A   Partly Cloudy
4:54 PM 71.1 °F 42.1 °F 35% 30.30 in 10.0 mi Variable 5.8 mph - N/A   Partly Cloudy
5:54 PM 70.0 °F 42.1 °F 36% 30.30 in 10.0 mi ESE 3.5 mph - N/A   Partly Cloudy
6:54 PM 68.0 °F 42.1 °F 39% 30.30 in 10.0 mi SE 4.6 mph - N/A   Partly Cloudy
7:54 PM 66.0 °F 45.0 °F 47% 30.30 in 10.0 mi South 3.5 mph - N/A   Partly Cloudy
8:54 PM 64.0 °F 46.0 °F 52% 30.30 in 10.0 mi SSE 3.5 mph - N/A   Clear
9:54 PM 60.1 °F 50.0 °F 69% 30.30 in 10.0 mi SSE 5.8 mph - N/A   Clear
10:54 PM 57.9 °F 50.0 °F 75% 30.30 in 10.0 mi SSE 5.8 mph - N/A   Clear
11:54 PM 57.9 °F 50.0 °F 75% 30.30 in 10.0 mi SW 5.8 mph - N/A   Partly Cloudy